Location: San Pelegr�n
(42.1868°N, 0.0079°E)
Time: 14:39:05
(UTC+00:00)

Meteor 2-10 Rocket - Pass Details

Date: 24 January 2020
Orbit: 733 x 885 km, 81.2° (Epoch: 22 February)

Event Time Altitude Azimuth Distance (km) Brightness Sun altitude
Rises 17:48:09 0° 355° (N) 3,314 6.6 -8.5°
Reaches altitude 10° 17:50:42 10° 2° (N) 2,355 5.8 -9.0°
Maximum altitude 17:55:44 44° 75° (ENE) 1,052 3.8 -9.9°
Drops below altitude 10° 18:00:34 10° 147° (SSE) 2,261 5.8 -10.7°
Sets 18:02:58 0° 154° (SSE) 3,167 6.6 -11.1°
